Location: Grassland Mountain Observatory
(35.7543°N, 82.8038°W)
Time: 06:57:28
(UTC-05:00)

Envisat - Pass Details

Date: 28 November 2021
Orbit: 764 x 766 km, 98.2° (Epoch: 20 January)

Event Time Altitude Azimuth Distance (km) Brightness Sun altitude
Rises 05:57:53 0° 5° (N) 3,236 6.1 -16.5°
Reaches altitude 10° 06:00:15 10° 360° (N) 2,306 5.3 -16.0°
Maximum altitude 06:05:06 47° 287° (WNW) 1,005 3.2 -15.0°
Drops below altitude 10° 06:09:56 10° 215° (SW) 2,291 5.3 -14.1°
Sets 06:12:17 0° 209° (SSW) 3,213 6.1 -13.7°
